CZ-6A DEB

Satellite information

Favourite Embed

Satellite Type and Status

DEBRISIN ORBIT

Key statistics

Satellite CZ-6A DEB at a glance.

Uptime

907

Days in orbit

Revolutions

≈ 14.4

Per day

Orbit

SSO

Sun Synchronous Orbit

Inclination

98.6

Latest

Satellite identification and parameters

Extended collection of information and parameters for CZ-6A DEB.

Object identification

Identified? True

Debris? True

Object name: CZ-6A DEB

International designator: 2022-151HC

Object number (NORAD): 54476

Object ID (CCSDS): 54476

Country: PEOPLES REPUBLIC OF CHINA (PRC)

Current information (Y/N): Y

RCS size: SMALL

Orbital parameters

Period: 99.725 minutes

Inclination: 98.6394 deg

SMA: 7123.547 km

Apoapsis: 826.245 km

Periapsis: 664.58 km

RAAN: 152.791 deg

Eccentricy: 0.0113472

Argument of periapsis: 148.4227 deg

Mean anomaly: 212.3838 deg

Mean motion: 14.43970421 rev/day

Mean motion (dot): 0.00005597 rev/day2

B* drag term: 0.0015271 1/REarth

Two-line elements (TLE)

Creation date: May 5, 2025, 2:11 a.m.

Reference frame: TEME

Reference center: EARTH

Epoch: May 4, 2025, 7:11 p.m. UTC

TLE line 0: 0 CZ-6A DEB

TLE line 1: 1 54476U 22151HC 25124.79997060 .00005597 00000-0 15271-2 0 9992

TLE line 2: 2 54476 98.6394 152.7910 0113472 148.4227 212.3838 14.43970421129710

Live tracking on map

Real-time ground track for satellite CZ-6A DEB.

In-orbit conjunctions

A list of the most updated potential collisions computed for object CZ-6A DEB.

Target Orbit TCA Probability of collision Miss distance Type
COSMOS 371 LEO 2024-11-11 21:42:35 0.0003842197 543.0 (m) PAYLOAD
NOAA 16 DEB SSO 2024-07-10 07:22:33 0.0002248413 51.0 (m) DEBRIS
COSMOS 1818 LEO 2024-07-04 00:36:26 0.0001117129 444.0 (m) PAYLOAD
CZ-6A DEB SSO 2024-06-22 05:44:48 0.0002693573 118.0 (m) DEBRIS

Associated space launch

Chinese satellite reported for atmospheric/ocean/environmental/spatial parameter research purposes, details TBD.

CZ-6A DEB was lifted into orbit during the mission ‘Long March 6A | Yunhai 3’, on board a Long March 6A space rocket.

The launch took place on Nov. 11, 2022, 10:52 p.m. from Launch Complex 9A.

For more information about the launch, click the button.

Launch to space Long March 6A | Yunhai 3
Long March 6A | Yunhai 3

Agency: N/A

Status: Launch Successful

Launch date: Nov. 11, 2022, 10:52 p.m. UTC

Rocket: Long March 6A

Launch pad: Launch Complex 9A

Location: Taiyuan Satellite Launch Center, People's Republic of China

...

Latest news about this satellite

There are no fresh news available about this satellite. Check back as we update our databases every day.


Newsletter sign-up

Weekly statistics, charts and insights to help you stay on top of the space industry.